Location: C�mpuri de-Sus
(45.9500°N, 22.5500°E)
Time: 00:16:16
(UTC+00:00)

Cosmos 839 Rocket - Visible Passes

Search period start: 01 December 2023 00:00
Search period end: 11 December 2023 00:00
Orbit: 957 x 2095 km, 65.9° (Epoch: 29 November)

Date Brightness Start Highest point End Pass type
(mag) Time Alt. Az. Time Alt. Az. Time Alt. Az.
01 Dec 6.1 01:35:48 28° SSE 01:42:23 51° ESE 01:53:46 10° NE visible
01 Dec 5.6 03:32:35 16° SW 03:43:00 64° NW 03:54:46 10° NE visible
02 Dec 6.5 00:57:02 32° SE 01:00:43 38° ESE 01:11:17 10° NE visible
02 Dec 5.5 02:53:47 33° SW 03:00:37 79° NW 03:12:37 10° NE visible
02 Dec 6.1 04:52:13 10° W 05:03:16 37° NNW 05:13:36 10° NE visible
03 Dec 6.8 00:17:50 27° ESE 00:19:14 27° E 00:28:31 10° NE visible
03 Dec 5.5 02:14:33 53° SSW 02:18:25 83° ESE 02:30:26 10° NE visible
03 Dec 5.9 04:11:16 17° W 04:20:23 44° NW 04:31:18 10° NE visible
03 Dec 7.2 23:38:20 19° E 23:38:20 19° E 23:45:10 10° ENE visible
04 Dec 5.7 01:35:01 62° SE 01:36:24 66° ESE 01:48:13 10° NE visible
04 Dec 5.7 03:31:43 32° W 03:37:41 53° NW 03:49:04 10° NE visible
04 Dec 7.5 22:58:37 11° E 22:58:37 11° E 22:59:58 10° ENE visible
05 Dec 6.1 00:55:17 50° E 00:55:17 50° E 01:05:54 10° NE visible
05 Dec 5.5 02:51:58 52° W 02:55:09 65° NW 03:06:54 10° NE visible
05 Dec 6.2 04:48:39 12° W 04:58:24 32° NNW 05:08:09 10° NE visible
06 Dec 6.6 00:15:23 34° E 00:15:23 34° E 00:23:25 10° NE visible
06 Dec 5.4 02:12:03 78° W 02:12:47 80° NW 02:24:44 10° NE visible
06 Dec 6.1 04:08:44 23° WNW 04:15:24 37° NNW 04:25:43 10° NE visible
06 Dec 7.0 23:35:22 23° ENE 23:35:22 23° ENE 23:40:38 10° NE visible
07 Dec 5.6 01:32:02 74° ENE 01:32:02 74° ENE 01:42:35 10° NE visible
07 Dec 5.9 03:28:41 36° WNW 03:32:32 44° NW 03:43:24 10° NE visible
07 Dec 7.4 22:55:15 14° ENE 22:55:15 14° ENE 22:57:15 10° ENE visible
08 Dec 6.0 00:51:54 51° ENE 00:51:54 51° ENE 01:00:21 10° NE visible
08 Dec 5.6 02:48:33 52° WNW 02:49:50 53° NW 03:01:12 10° NE visible
08 Dec 6.3 04:45:12 14° WNW 04:53:38 29° NNW 05:02:48 10° NE visible
09 Dec 6.6 00:11:41 35° ENE 00:11:41 35° ENE 00:18:02 10° NE visible
09 Dec 5.6 02:08:19 64° NNW 02:08:19 64° NNW 02:19:01 10° NE visible
09 Dec 6.2 04:04:58 23° WNW 04:10:31 32° NNW 04:20:13 10° NE visible
09 Dec 7.0 23:31:23 23° ENE 23:31:23 23° ENE 23:35:32 10° NE visible
10 Dec 5.8 01:28:02 59° NNE 01:28:02 59° NNE 01:36:53 10° NE visible
10 Dec 6.0 03:24:40 34° NW 03:27:32 37° NNW 03:37:48 10° NE visible
10 Dec 6.4 05:22:38 10° NW 05:32:10 27° N 05:40:33 10° NE visible
10 Dec 7.4 22:51:03 14° NE 22:51:03 14° NE 22:52:44 10° NE visible
